Weather History for KSFO - March, 2014

Change the Weather History Date:

Thursday, March 6, 2014

  Actual Average Record
Temperature  
Mean Temperature 59 °F 54 °F  
Max Temperature 63 °F 62 °F 74 °F (1993)
Min Temperature 54 °F 47 °F 35 °F (1956)
Degree Days  
Heating Degree Days 6 11  
Month to date heating degree days 42 66  
Since 1 July heating degree days 1587 1872  
Cooling Degree Days 0 0  
Month to date cooling degree days 0 0  
Year to date cooling degree days 0 0  
Growing Degree Days 8 (Base 50)    
Moisture  
Dew Point 54 °F    
Average Humidity 84    
Maximum Humidity 100    
Minimum Humidity 67    
Precipitation  
Precipitation T in 0.11 in 1.13 in (1992)
Month to date precipitation 0.41 0.72  
Year to date precipitation 4.18 8.97  
Since 1 July precipitation 5.67  
Sea Level Pressure  
Sea Level Pressure 30.15 in    
Wind  
Wind Speed 8 mph (West)    
Max Wind Speed 14 mph    
Max Gust Speed 16 mph    
Visibility 9 miles    
Events Rain    
T = Trace of Precipitation, MM = Missing Value Source: NWS Daily Summary

Daily Weather History Graph

Daily Weather History Graph

Search for Another Location

Airport or City:

Trip Planner

Search our weather history database for the weather conditions in past years. The results will help you decide how hot, cold, wet, or windy it might be!

Date:

Astronomy

Mar. 06, 2014 Rise Set
Actual Time 6:33 AM PST 6:08 PM PST
Civil Twilight 6:07 AM PST 6:34 PM PST
Nautical Twilight 5:37 AM PST 7:04 PM PST
Astronomical Twilight 5:06 AM PST 7:35 PM PST
Moon 9:52 AM PST No Moon Set
Length of Visible Light 12h 26m
Length of Day
11h 34m
Waxing Crescent, 33% of the Moon is Illuminated
Mar 6
Waxing Crescent
Mar 8
First Quarter
Mar 16
Full
Mar 23
Last Quarter
Mar 30
New

Hourly Weather History & Observations

Time (PST) Temp. Dew Point Humidity Pressure Visibility Wind Dir Wind Speed Gust Speed Precip Events Conditions
12:07 AM 60.8 °F 57.2 °F 88% 30.05 in 10.0 mi SW 10.4 mph - 0.01 in Rain Light Rain
12:56 AM 59.0 °F 57.0 °F 93% 30.07 in 10.0 mi SW 9.2 mph - 0.01 in   Overcast
1:56 AM 57.9 °F 57.0 °F 97% 30.08 in 10.0 mi WSW 8.1 mph - N/A   Overcast
2:56 AM 57.0 °F 55.9 °F 96% 30.09 in 8.0 mi West 6.9 mph - N/A   Overcast
3:03 AM 55.4 °F 55.4 °F 100% 30.10 in 8.0 mi West 9.2 mph - N/A   Overcast
3:56 AM 55.0 °F 55.0 °F 100% 30.11 in 8.0 mi West 11.5 mph - N/A   Overcast
4:56 AM 55.0 °F 54.0 °F 96% 30.10 in 10.0 mi West 3.5 mph - N/A   Overcast
5:03 AM 55.4 °F 53.6 °F 94% 30.09 in 10.0 mi West 3.5 mph - N/A   Overcast
5:48 AM 53.6 °F 53.6 °F 100% 30.10 in 10.0 mi WSW 4.6 mph - N/A   Mostly Cloudy
5:56 AM 54.0 °F 53.1 °F 97% 30.11 in 10.0 mi West 5.8 mph - N/A   Mostly Cloudy
6:56 AM 54.0 °F 53.1 °F 97% 30.11 in 9.0 mi West 5.8 mph - N/A   Mostly Cloudy
7:56 AM 55.9 °F 54.0 °F 93% 30.14 in 10.0 mi Calm Calm - N/A   Scattered Clouds
8:56 AM 57.9 °F 54.0 °F 87% 30.17 in 10.0 mi Calm Calm - N/A   Scattered Clouds
9:56 AM 59.0 °F 55.0 °F 87% 30.18 in 10.0 mi Calm Calm - N/A   Mostly Cloudy
10:56 AM 59.0 °F 54.0 °F 83% 30.19 in 9.0 mi WNW 12.7 mph - N/A   Mostly Cloudy
11:56 AM 61.0 °F 53.1 °F 75% 30.19 in 10.0 mi NW 8.1 mph - N/A   Mostly Cloudy
12:56 PM 62.1 °F 53.1 °F 72% 30.17 in 10.0 mi WNW 8.1 mph - N/A   Mostly Cloudy
1:56 PM 62.1 °F 52.0 °F 70% 30.16 in 10.0 mi WNW 10.4 mph - N/A   Mostly Cloudy
2:56 PM 60.1 °F 54.0 °F 80% 30.16 in 10.0 mi WNW 10.4 mph - N/A   Mostly Cloudy
3:56 PM 61.0 °F 52.0 °F 72% 30.15 in 10.0 mi West 9.2 mph - N/A   Mostly Cloudy
4:56 PM 60.1 °F 53.1 °F 78% 30.15 in 10.0 mi West 11.5 mph - N/A   Mostly Cloudy
5:34 PM 57.2 °F 53.6 °F 88% 30.16 in 10.0 mi West 6.9 mph - N/A   Scattered Clouds
5:56 PM 57.9 °F 54.0 °F 87% 30.17 in 10.0 mi WNW 10.4 mph - N/A   Mostly Cloudy
6:11 PM 57.2 °F 53.6 °F 88% 30.17 in 9.0 mi West 12.7 mph - N/A   Mostly Cloudy
6:56 PM 57.0 °F 53.1 °F 87% 30.18 in 9.0 mi West 5.8 mph - N/A   Mostly Cloudy
7:11 PM 57.2 °F 53.6 °F 88% 30.18 in 9.0 mi WNW 5.8 mph - N/A   Mostly Cloudy
7:56 PM 55.9 °F 53.1 °F 90% 30.19 in 9.0 mi West 10.4 mph - N/A   Scattered Clouds
8:56 PM 55.0 °F 53.1 °F 93% 30.19 in 9.0 mi West 10.4 mph - N/A   Partly Cloudy
9:56 PM 55.0 °F 54.0 °F 96% 30.21 in 9.0 mi WNW 6.9 mph - N/A   Partly Cloudy
10:00 PM 55.4 °F 53.6 °F 94% 30.20 in 9.0 mi West 8.1 mph - N/A   Scattered Clouds
10:56 PM 54.0 °F 52.0 °F 93% 30.20 in 9.0 mi WNW 6.9 mph - N/A   Clear
11:56 PM 54.0 °F 52.0 °F 93% 30.18 in 9.0 mi West 9.2 mph - N/A   Clear